Tümü
Yorketown Airport (Yorketown Southern Australia) YYOR Hava Durumu
There is no TAF data available at YYOR or any nearby airports.
There is no METAR data available at YYOR. Showing METAR data for YMIN (19 mi K).
Yakın zamandaki XML METAR geçmişi (YYOR verisi yok)
| Date | Time (ACST) | Flight Rules | Wind Dir. | Speed | Type | Height AGL (ft) | Visibility | Temp (°C) | Temp (°F) | Dew Point (°C) | Dew Point (°F) | Rel. Humid. | Pressure | Density Altitude | Remarks |
|---|---|---|---|---|---|---|---|---|---|---|---|---|---|---|---|
| 07-Eyl | 05:30 | n/a | 150° | 9 kt | Missing | 8° | 46° | 7° | 44° | 93% | 1028 mb | -1.165 ft | |||
| 07-Eyl | 04:30 | n/a | 140° | 6 kt | Missing | 9° | 48° | 8° | 46° | 93% | 1028 mb | -1.045 ft | |||
| 07-Eyl | 03:30 | n/a | 150° | 8 kt | Missing | 9° | 48° | 8° | 46° | 93% | 1028 mb | -1.045 ft | |||
| 07-Eyl | 02:30 | n/a | 180° | 5 kt | Missing | 10° | 50° | 10° | 50° | 100% | 1028 mb | -925 ft | |||
| 07-Eyl | 01:30 | n/a | 180° | 7 kt | Missing | 10° | 50° | 9° | 48° | 93% | 1028 mb | -925 ft | |||
| 07-Eyl | 00:30 | n/a | 200° | 8 kt | Missing | 11° | 51° | 10° | 50° | 94% | 1028 mb | -805 ft | |||
| 06-Eyl | 23:30 | n/a | 200° | 7 kt | Missing | 11° | 51° | 10° | 50° | 94% | 1028 mb | -805 ft | |||
| 06-Eyl | 22:30 | n/a | 170° | 6 kt | Missing | 10° | 50° | 9° | 48° | 93% | 1027 mb | -895 ft | |||
| 06-Eyl | 21:30 | n/a | 160° | 9 kt | Missing | 9° | 48° | 8° | 46° | 93% | 1026 mb | -986 ft | |||
| 06-Eyl | 20:30 | n/a | 150° | 6 kt | Missing | 11° | 51° | 10° | 50° | 94% | 1026 mb | -746 ft | |||
| 06-Eyl | 19:30 | n/a | 130° | 6 kt | Missing | 11° | 51° | 9° | 48° | 87% | 1025 mb | -716 ft | |||
| 06-Eyl | 18:30 | n/a | Calm | Missing | 12° | 53° | 9° | 48° | 82% | 1025 mb | -596 ft | ||||
| 06-Eyl | 17:30 | n/a | 250° | 4 kt | Missing | 12° | 53° | 8° | 46° | 76% | 1024 mb | -567 ft | |||
| 06-Eyl | 16:30 | n/a | 250° | 11 kt | Missing | 15° | 59° | 9° | 48° | 67% | 1024 mb | -207 ft | |||
| 06-Eyl | 15:30 | n/a | 270° | 9 kt | Missing | 15° | 59° | 9° | 48° | 67% | 1024 mb | -207 ft | |||
| 06-Eyl | 14:30 | n/a | 270° | 10 kt | Missing | 16° | 60° | 10° | 50° | 68% | 1023 mb | -57 ft | |||
| 06-Eyl | 13:30 | n/a | 280° | 7 kt | Missing | 16° | 60° | 10° | 50° | 68% | 1023 mb | -57 ft | |||
| 06-Eyl | 12:30 | n/a | 260° | 7 kt | Missing | 15° | 59° | 9° | 48° | 67% | 1024 mb | -207 ft | |||
| 06-Eyl | 11:30 | n/a | 250° | 7 kt | Missing | 15° | 59° | 9° | 48° | 67% | 1024 mb | -207 ft | |||
| 06-Eyl | 10:30 | n/a | 270° | 6 kt | Missing | 16° | 60° | 10° | 50° | 68% | 1024 mb | -87 ft | |||
| 06-Eyl | 09:30 | n/a | 230° | 5 kt | Missing | 15° | 59° | 9° | 48° | 67% | 1024 mb | -207 ft | |||
| 06-Eyl | 08:30 | n/a | 170° | 5 kt | Missing | 13° | 55° | 11° | 51° | 88% | 1024 mb | -447 ft | |||
| 06-Eyl | 07:30 | n/a | Calm | Missing | 11° | 51° | 10° | 50° | 94% | 1023 mb | -657 ft | ||||
| 06-Eyl | 06:30 | n/a | 150° | 4 kt | Missing | 9° | 48° | 7° | 44° | 87% | 1022 mb | -868 ft |
Giriş
| Tarayıcınız desteklenmiyor. tarayıcınızı yükseltin |
